Location: Unspecified
(0.0000°N, 0.0000°E)
Time: 03:15:51
(UTC+00:00)

Hubble Space Telescope - Pass Details

Date: 11 November 2019
Orbit: 536 x 540 km, 28.5° (Epoch: 10 November)

Event Time Altitude Azimuth Distance (km) Brightness Sun altitude
Rises 19:21:35 0° 260° (W) 2,673 5.7 -23.2°
Reaches altitude 10° 19:24:06 10° 273° (W) 1,781 4.3 -23.8°
Enters shadow 19:27:31 26° 329° (NNW) 1,066 2.3 -24.6°
